• In Uzbekistan
  • List of Countries
  • For 7 days
  • Water Temperature
  • Satellite Maps
  • Weather Map
  • Weather Widgets
  • user-avatar
    Login

    Hourly Weather Neuquén

    Today, 23 October, Monday

    Time Temperature Precipitation Wind Pressure Humidity
    00:00 +18°C° 0 mm 3 mps 730 mmHg 29%
    01:00 +17°C° 0 mm 3 mps 730 mmHg 33%
    02:00 +17°C° 0 mm 3 mps 730 mmHg 33%
    03:00 +16°C° 0 mm 3 mps 730 mmHg 33%
    04:00 +16°C° 0 mm 3 mps 730 mmHg 33%
    05:00 +17°C° 0 mm 3 mps 730 mmHg 32%
    06:00 +19°C° 0 mm 3 mps 731 mmHg 30%
    07:00 +20°C° 0 mm 3 mps 731 mmHg 28%
    08:00 +22°C° 0 mm 5 mps 731 mmHg 24%
    09:00 +23°C° 0 mm 7 mps 731 mmHg 21%
    10:00 +26°C° 0 mm 8 mps 731 mmHg 17%
    11:00 +27°C° 0 mm 9 mps 730 mmHg 17%
    12:00 +27°C° 0 mm 9 mps 730 mmHg 17%
    13:00 +28°C° 0 mm 9 mps 730 mmHg 17%
    14:00 +27°C° 0 mm 9 mps 730 mmHg 20%
    15:00 +26°C° 0 mm 9 mps 729 mmHg 23%
    16:00 +24°C° 0 mm 10 mps 729 mmHg 26%
    17:00 +23°C° 0 mm 9 mps 729 mmHg 28%
    18:00 +22°C° 0 mm 8 mps 730 mmHg 30%
    19:00 +21°C° 0 mm 7 mps 730 mmHg 33%
    20:00 +20°C° 0 mm 7 mps 731 mmHg 36%
    21:00 +18°C° 0 mm 7 mps 731 mmHg 39%
    22:00 +17°C° 0 mm 7 mps 732 mmHg 42%
    23:00 +17°C° 0 mm 7 mps 732 mmHg 44%

    Tomorrow, 24 October, Tuesday

    Time Temperature Precipitation Wind Pressure Humidity
    00:00 +16°C° 0 mm 6 mps 732 mmHg 46%
    01:00 +15°C° 0 mm 6 mps 732 mmHg 48%
    02:00 +14°C° 0 mm 6 mps 732 mmHg 48%
    03:00 +14°C° 0 mm 7 mps 733 mmHg 49%
    04:00 +12°C° 0 mm 7 mps 733 mmHg 49%
    05:00 +13°C° 0 mm 8 mps 733 mmHg 44%
    06:00 +15°C° 0 mm 8 mps 734 mmHg 40%
    07:00 +15°C° 0 mm 9 mps 734 mmHg 35%
    08:00 +17°C° 0 mm 8 mps 734 mmHg 32%
    09:00 +18°C° 0 mm 8 mps 734 mmHg 29%
    10:00 +21°C° 0 mm 7 mps 734 mmHg 26%
    11:00 +22°C° 0 mm 7 mps 734 mmHg 25%
    12:00 +22°C° 0 mm 6 mps 733 mmHg 24%
    13:00 +23°C° 0 mm 5 mps 733 mmHg 23%
    14:00 +25°C° 0 mm 5 mps 732 mmHg 23%
    15:00 +25°C° 0 mm 4 mps 732 mmHg 22%
    16:00 +25°C° 0 mm 4 mps 731 mmHg 21%
    17:00 +25°C° 0 mm 4 mps 732 mmHg 22%
    18:00 +23°C° 0 mm 5 mps 732 mmHg 23%
    19:00 +22°C° 0 mm 5 mps 732 mmHg 23%
    20:00 +21°C° 0 mm 5 mps 733 mmHg 26%
    21:00 +20°C° 0 mm 6 mps 733 mmHg 29%
    22:00 +17°C° 0 mm 6 mps 733 mmHg 31%
    23:00 +17°C° 0 mm 6 mps 733 mmHg 34%

    Day after tomorrow, 25 October, Wednesday

    Time Temperature Precipitation Wind Pressure Humidity
    00:00 +16°C° 0 mm 6 mps 733 mmHg 36%
    01:00 +15°C° 0 mm 5 mps 733 mmHg 39%
    02:00 +15°C° 0 mm 5 mps 733 mmHg 40%
    03:00 +14°C° 0 mm 5 mps 733 mmHg 41%
    04:00 +14°C° 0 mm 5 mps 733 mmHg 42%
    05:00 +15°C° 0 mm 5 mps 733 mmHg 39%
    06:00 +16°C° 0 mm 5 mps 733 mmHg 36%
    07:00 +17°C° 0 mm 6 mps 733 mmHg 33%
    08:00 +19°C° 0 mm 5 mps 733 mmHg 30%
    09:00 +21°C° 0 mm 5 mps 733 mmHg 27%
    10:00 +22°C° 0 mm 5 mps 733 mmHg 24%
    11:00 +23°C° 0 mm 5 mps 732 mmHg 22%
    12:00 +25°C° 0 mm 5 mps 732 mmHg 20%
    13:00 +26°C° 0 mm 5 mps 731 mmHg 19%
    14:00 +26°C° 0 mm 5 mps 731 mmHg 19%
    15:00 +26°C° 0 mm 4 mps 730 mmHg 18%
    16:00 +26°C° 0 mm 4 mps 729 mmHg 18%
    17:00 +26°C° 0 mm 4 mps 730 mmHg 20%
    18:00 +25°C° 0 mm 4 mps 730 mmHg 21%
    19:00 +23°C° 0 mm 5 mps 731 mmHg 23%
    20:00 +22°C° 0 mm 6 mps 731 mmHg 25%
    21:00 +21°C° 0 mm 7 mps 731 mmHg 27%
    22:00 +18°C° 0 mm 8 mps 732 mmHg 29%
    23:00 +18°C° 0 mm 8 mps 732 mmHg 31%

    26 October, Thursday

    Time Temperature Precipitation Wind Pressure Humidity
    00:00 +17°C° 0 mm 7 mps 732 mmHg 33%
    01:00 +16°C° 0 mm 7 mps 732 mmHg 35%
    02:00 +15°C° 0 mm 7 mps 732 mmHg 38%
    03:00 +14°C° 0 mm 7 mps 732 mmHg 41%
    04:00 +14°C° 0 mm 6 mps 732 mmHg 43%
    05:00 +15°C° 0 mm 6 mps 733 mmHg 42%
    06:00 +15°C° 0 mm 6 mps 733 mmHg 41%
    07:00 +16°C° 0 mm 6 mps 734 mmHg 39%
    08:00 +17°C° 0 mm 5 mps 734 mmHg 36%
    09:00 +19°C° 0 mm 4 mps 734 mmHg 33%
    10:00 +21°C° 0 mm 3 mps 734 mmHg 30%
    11:00 +22°C° 0 mm 4 mps 733 mmHg 27%
    12:00 +23°C° 0 mm 4 mps 733 mmHg 25%
    13:00 +25°C° 0 mm 4 mps 732 mmHg 23%
    14:00 +25°C° 0 mm 5 mps 732 mmHg 23%
    15:00 +25°C° 0 mm 5 mps 732 mmHg 22%
    16:00 +25°C° 0 mm 5 mps 732 mmHg 22%
    17:00 +23°C° 0 mm 5 mps 732 mmHg 23%
    18:00 +23°C° 0 mm 4 mps 733 mmHg 25%
    19:00 +22°C° 0 mm 4 mps 733 mmHg 27%
    20:00 +21°C° 0 mm 4 mps 733 mmHg 29%
    21:00 +21°C° 0 mm 3 mps 734 mmHg 32%
    22:00 +20°C° 0 mm 3 mps 734 mmHg 34%
    23:00 +19°C° 0 mm 4 mps 734 mmHg 36%

    27 October, Friday

    Time Temperature Precipitation Wind Pressure Humidity
    00:00 +18°C° 0 mm 4 mps 734 mmHg 38%
    01:00 +17°C° 0 mm 4 mps 734 mmHg 41%
    02:00 +17°C° 0 mm 4 mps 734 mmHg 43%
    03:00 +15°C° 0 mm 4 mps 734 mmHg 44%
    04:00 +15°C° 0 mm 4 mps 734 mmHg 46%
    05:00 +15°C° 0 mm 4 mps 734 mmHg 43%
    06:00 +17°C° 0 mm 4 mps 734 mmHg 40%
    07:00 +17°C° 0 mm 5 mps 734 mmHg 37%
    08:00 +20°C° 0 mm 4 mps 733 mmHg 34%
    09:00 +21°C° 0 mm 4 mps 733 mmHg 31%
    10:00 +22°C° 0 mm 3 mps 733 mmHg 28%
    11:00 +23°C° 0 mm 4 mps 732 mmHg 25%
    12:00 +25°C° 0 mm 5 mps 731 mmHg 23%
    13:00 +26°C° 0 mm 5 mps 730 mmHg 21%
    14:00 +27°C° 0 mm 5 mps 729 mmHg 19%
    15:00 +28°C° 0 mm 5 mps 728 mmHg 17%
    16:00 +28°C° 0 mm 4 mps 727 mmHg 15%
    17:00 +27°C° 0 mm 4 mps 727 mmHg 16%
    18:00 +27°C° 0 mm 4 mps 727 mmHg 17%
    19:00 +26°C° 0 mm 4 mps 727 mmHg 18%
    20:00 +25°C° 0 mm 5 mps 727 mmHg 20%
    21:00 +23°C° 0 mm 6 mps 727 mmHg 22%
    22:00 +22°C° 0 mm 6 mps 727 mmHg 24%
    23:00 +21°C° 0 mm 6 mps 727 mmHg 26%

    28 October, Saturday

    Time Temperature Precipitation Wind Pressure Humidity
    00:00 +19°C° 0 mm 5 mps 726 mmHg 29%
    01:00 +18°C° 0 mm 4 mps 726 mmHg 32%
    02:00 +18°C° 0 mm 3 mps 726 mmHg 34%
    03:00 +17°C° 0 mm 3 mps 725 mmHg 37%
    04:00 +16°C° 0 mm 2 mps 725 mmHg 40%
    05:00 +17°C° 0 mm 2 mps 725 mmHg 37%
    06:00 +19°C° 0 mm 3 mps 726 mmHg 34%
    07:00 +20°C° 0 mm 3 mps 726 mmHg 31%
    08:00 +21°C° 0 mm 5 mps 726 mmHg 29%
    09:00 +22°C° 0 mm 6 mps 726 mmHg 26%
    10:00 +23°C° 0 mm 8 mps 726 mmHg 24%
    11:00 +22°C° 0 mm 8 mps 725 mmHg 26%
    12:00 +21°C° 0 mm 9 mps 725 mmHg 28%
    13:00 +19°C° 0 mm 10 mps 725 mmHg 30%
    14:00 +19°C° 0.1 mm 10 mps 725 mmHg 27%
    15:00 +19°C° 0.1 mm 11 mps 725 mmHg 24%
    16:00 +19°C° 0.1 mm 11 mps 725 mmHg 21%
    17:00 +18°C° 0 mm 12 mps 726 mmHg 20%
    18:00 +15°C° 0 mm 12 mps 727 mmHg 20%
    19:00 +14°C° 0 mm 12 mps 728 mmHg 20%
    20:00 +13°C° 0 mm 11 mps 728 mmHg 23%
    21:00 +12°C° 0 mm 10 mps 729 mmHg 26%
    22:00 +11°C° 0 mm 10 mps 730 mmHg 29%
    23:00 +11°C° 0 mm 10 mps 730 mmHg 30%

    29 October, Sunday

    Time Temperature Precipitation Wind Pressure Humidity
    00:00 +9°C° 0 mm 10 mps 730 mmHg 32%
    01:00 +8°C° 0 mm 11 mps 730 mmHg 33%
    02:00 +8°C° 0 mm 10 mps 730 mmHg 34%
    03:00 +8°C° 0 mm 10 mps 730 mmHg 35%
    04:00 +8°C° 0 mm 10 mps 730 mmHg 36%
    05:00 +9°C° 0 mm 11 mps 731 mmHg 34%
    06:00 +10°C° 0 mm 13 mps 731 mmHg 32%
    07:00 +12°C° 0 mm 14 mps 731 mmHg 30%
    08:00 +14°C° 0 mm 13 mps 731 mmHg 27%
    09:00 +15°C° 0 mm 13 mps 731 mmHg 24%
    10:00 +17°C° 0 mm 13 mps 731 mmHg 21%
    11:00 +18°C° 0 mm 13 mps 731 mmHg 20%
    12:00 +18°C° 0 mm 13 mps 731 mmHg 20%
    13:00 +19°C° 0 mm 12 mps 731 mmHg 19%
    14:00 +19°C° 0 mm 12 mps 731 mmHg 20%
    15:00 +18°C° 0 mm 12 mps 731 mmHg 21%
    16:00 +18°C° 0 mm 11 mps 731 mmHg 22%
    17:00 +17°C° 0 mm 11 mps 731 mmHg 24%
    18:00 +16°C° 0 mm 10 mps 732 mmHg 27%
    19:00 +14°C° 0 mm 10 mps 732 mmHg 29%
    20:00 +13°C° 0 mm 9 mps 732 mmHg 31%
    21:00 +13°C° 0 mm 9 mps 733 mmHg 33%
    22:00 +12°C° 0 mm 8 mps 733 mmHg 34%
    23:00 +12°C° 0 mm 8 mps 733 mmHg 36%
    Show more